This demonstration page uses our WeatherBlox Daily Observations layout. Learn more.

Left ArrowRight Arrow

38.20091, -84.87328

Hourly Observations for July 19, 2021

Temp ( °F °C ) Dew Point ( °F °C ) Humidity (%) Winds ( mph kmh ) Pressure ( in mb ) Visibility ( mi km ) Precip ( " mm )
12:53 am 00:53 Clear 68 20 63 17.2 84 84 ENE 3 6 30.11 1020 10 16 0.00 0.00
1:53 am 01:53 Clear 67 19.4 63 17.2 87 87 Calm 30.11 1020 10 16 0.00 0.00
2:53 am 02:53 Clear 66 18.9 63 17.2 90 90 Calm 30.09 1019 10 16 0.00 0.00
3:53 am 03:53 Clear 65 18.3 63 17.2 93 93 Calm 30.09 1019 10 16 0.00 0.00
4:53 am 04:53 Clear 64 17.8 62 16.7 93 93 Calm 30.09 1019 8 13 0.00 0.00
5:53 am 05:53 Clear 64 17.8 62 16.7 93 93 Calm 30.09 1019 10 16 0.00 0.00
6:53 am 06:53 Sunny 66 18.9 63 17.2 90 90 N 5 7 30.10 1019 10 16 0.00 0.00
7:53 am 07:53 Sunny 68 20 63 17.2 84 84 NNE 3 6 30.10 1019 10 16 0.00 0.00
8:53 am 08:53 Sunny 72 22.2 64 17.8 76 76 NE 6 9 30.10 1019 10 16 0.00 0.00
9:53 am 09:53 Sunny 77 25 66 18.9 69 69 ENE 7 11 30.11 1020 10 16 0.00 0.00
10:53 am 10:53 Sunny 80 26.7 65 18.3 60 60 NNE 5 7 30.11 1020 10 16 0.00 0.00
11:53 am 11:53 Sunny 82 27.8 65 18.3 56 56 ENE 7 11 30.10 1019 10 16 0.00 0.00
12:53 pm 12:53 Sunny 84 28.9 65 18.3 53 53 E 7 11 30.10 1019 10 16 0.00 0.00
1:53 pm 13:53 Mostly Sunny 85 29.4 64 17.8 50 50 ENE 8 13 30.09 1019 10 16 0.00 0.00
2:53 pm 14:53 Partly Cloudy 85 29.4 64 17.8 50 50 NE 10 17 30.08 1019 10 16 0.00 0.00
3:53 pm 15:53 Partly Cloudy 86 30 64 17.8 48 48 NNE 10 17 30.06 1018 10 16 0.00 0.00
4:53 pm 16:53 Mostly Sunny 85 29.4 63 17.2 48 48 NE 9 15 30.04 1017 10 16 0.00 0.00
5:53 pm 17:53 Mostly Sunny 84 28.9 63 17.2 49 49 NNE 8 13 30.04 1017 10 16 0.00 0.00
6:53 pm 18:53 Sunny 83 28.3 63 17.2 51 51 ENE 10 17 30.04 1017 10 16 0.00 0.00
7:53 pm 19:53 Sunny 81 27.2 64 17.8 57 57 NNE 5 7 30.04 1017 10 16 0.00 0.00
8:53 pm 20:53 Sunny 79 26.1 65 18.3 62 62 NNE 3 6 30.04 1017 10 16 0.00 0.00
9:53 pm 21:53 Clear 77 25 65 18.3 66 66 N 3 6 30.04 1017 10 16 0.00 0.00
10:53 pm 22:53 Clear 71 21.7 65 18.3 81 81 Calm 30.06 1018 10 16 0.00 0.00
11:53 pm 23:53 Clear 70 21.1 65 18.3 84 84 Calm 30.05 1018 10 16 0.00 0.00

Powered by AerisWeather